{"data":{"norad_id":36795,"epoch":"2026-09-20T03:30:30.720096Z","epoch_age_seconds":41539,"freshness":"FRESH","line1":"1 36795U 10035A   26263.14618889  .00000033  00000+0  11625-4 0  9997","line2":"2 36795  97.9860 313.0396 0010160 241.6463 118.3724 14.78650344873882","mean_motion":14.78650344,"eccentricity":0.001016,"inclination_deg":97.986,"raan_deg":313.0396,"arg_perigee_deg":241.6463,"mean_anomaly_deg":118.3724,"bstar":1.1625e-5,"rev_number":87388,"period_min":97.386106583153,"perigee_km":626.46367080802,"apogee_km":640.71149516064,"semimajor_km":7011.7245829843,"source":"CELESTRAK","updated_at":"2026-09-20T09:00:33.891176Z"}}